KF0ZH Weather Reports


Display with metric or nautical units.
time (UTC)temp
F
wind
direction
speed
MPH
gust
MPH
rain 1hr
in
rain 24hr
in
rain mn
in
humidity
%
barometer
mb
20260904165300 81 7 5.0 9.0 0.00 0.00 0.00 87 1009.8
20260904164759 81 324 9.0 11.0 0.00 0.00 0.00 88 1009.9
20260904164300 81 312 6.0 11.0 0.00 0.00 0.00 85 1009.9
20260904163800 81 341 6.0 10.0 0.00 0.00 0.00 86 1009.8
20260904163259 82 351 9.0 11.0 0.00 0.00 0.00 85 1009.7
20260904161304 83 350 5.0 9.0 0.00 0.00 0.00 83 1009.5
20260904160259 83 330 6.0 6.0 0.00 0.00 0.00 83 1009.3
20260904155759 82 324 4.0 8.0 0.00 0.04 0.00 83 1009.4
20260904155306 82 8 0.0 5.0 0.00 0.04 0.00 84 1009.4
20260904154817 82 329 0.0 6.0 0.00 0.04 0.00 84 1009.4
20260904154300 82 289 0.0 5.0 0.00 0.04 0.00 85 1009.4
20260904152306 82 1 0.0 3.0 0.00 0.04 0.00 84 1009.2
20260904151835 82 317 2.0 6.0 0.00 0.04 0.00 84 1009.2
20260904150759 81 268 0.0 0.0 0.00 0.04 0.00 86 1009.0
20260904150334 81 268 0.0 0.0 0.00 0.04 0.00 87 1009.0
20260904150259 81 268 0.0 0.0 0.00 0.04 0.00 87 1009.0
20260904145331 80 274 4.0 4.0 0.00 0.04 0.00 88 1008.8
20260904145300 80 274 4.0 4.0 0.00 0.04 0.00 88 1008.8
20260904144759 80 16 0.0 2.0 0.00 0.04 0.00 90 1008.9
20260904144259 80 333 0.0 4.0 0.00 0.04 0.00 89 1008.8
20260904143300 80 358 0.0 2.0 0.00 0.04 0.00 91 1008.9
20260904142759 80 258 0.0 0.0 0.00 0.04 0.00 92 1008.9
20260904141259 80 281 0.0 3.0 0.00 0.04 0.00 95 1008.8
20260904140307 79 147 0.0 0.0 0.00 0.04 0.00 99 1008.8
20260904134259 77 147 0.0 0.0 0.00 0.04 0.00 99 1008.9
20260904131831 75 147 0.0 0.0 0.00 0.04 0.00 99 1008.9
20260904131800 75 147 0.0 0.0 0.00 0.04 0.00 99 1008.9
20260904130416 74 147 0.0 0.0 0.00 0.04 0.00 99 1008.7
20260904130331 74 147 0.0 0.0 0.00 0.04 0.00 99 1008.7
20260904130300 74 147 0.0 0.0 0.00 0.04 0.00 99 1008.7
20260904125956 74 147 0.0 0.0 0.00 0.04 0.00 99 1008.7
20260904125801 74 147 0.0 0.0 0.00 0.04 0.00 99 1008.7
20260904125338 73 147 0.0 0.0 0.00 0.04 0.00 99 1008.7
20260904125300 73 147 0.0 0.0 0.00 0.04 0.00 5 1008.6
20260904125255 73 147 0.0 0.0 0.00 0.04 0.00 99 1008.7
20260904125238 73 147 0.0 0.0 0.00 0.04 0.00 99 1008.6
20260904122759 73 181 4.0 4.0 0.00 0.04 0.00 99 1008.4
20260904122300 72 344 0.0 0.0 0.00 0.04 0.00 99 1008.3
20260904120259 72 344 0.0 0.0 0.00 0.04 0.00 99 1008.2
20260904115759 72 344 0.0 0.0 0.00 0.04 0.00 99 1008.3
20260904115357 72 344 0.0 0.0 0.00 0.04 0.00 99 1008.1
20260904115306 72 344 0.0 0.0 0.00 0.04 0.00 99 1008.1
20260904114759 72 344 0.0 0.0 0.00 0.04 0.00 99 1008.0
20260904113831 73 344 0.0 0.0 0.00 0.04 0.00 99 1007.9
20260904113800 73 344 0.0 0.0 0.00 0.04 0.00 99 1007.9
20260904112852 73 344 0.0 0.0 0.00 0.04 0.00 99 1007.9
20260904112759 73 344 0.0 0.0 0.00 0.04 0.00 99 1007.9
20260904111759 73 344 0.0 0.0 0.00 0.04 0.00 99 1007.6
20260904110759 73 344 0.0 0.0 0.00 0.04 0.00 99 1007.7
20260904110340 73 344 0.0 0.0 0.00 0.04 0.00 99 1007.6
20260904110259 73 344 0.0 0.0 0.00 0.04 0.00 99 1007.6
20260904105759 73 344 0.0 0.0 0.00 0.04 0.00 99 1007.9
20260904104759 73 344 0.0 0.0 0.00 0.04 0.00 99 1007.6
20260904103259 73 8 0.0 0.0 0.00 0.04 0.00 99 1007.6
20260904102804 73 347 2.0 2.0 0.00 0.04 0.00 99 1007.7
20260904102337 74 149 0.0 0.0 0.00 0.04 0.00 99 1007.6
20260904102301 74 149 0.0 0.0 0.00 0.04 0.00 99 1007.6
20260904101259 74 149 0.0 0.0 0.00 0.04 0.00 99 1007.6
20260904100759 73 149 0.0 0.0 0.00 0.04 0.00 99 1007.6
20260904100259 73 149 0.0 0.0 0.00 0.04 0.00 99 1007.6
20260904095759 74 149 0.0 0.0 0.00 0.04 0.00 99 1007.5
20260904094800 74 149 0.0 0.0 0.00 0.04 0.00 99 1007.4
20260904094259 74 149 0.0 0.0 0.00 0.04 0.00 99 1007.4
20260904093259 74 149 0.0 0.0 0.00 0.04 0.00 99 1007.4
20260904092800 74 149 0.0 0.0 0.00 0.04 0.00 99 1007.4
20260904091759 74 149 0.0 0.0 0.00 0.04 0.00 99 1007.2
20260904091300 74 149 0.0 0.0 0.00 0.04 0.00 99 1007.2
20260904090803 74 149 0.0 0.0 0.00 0.04 0.00 99 1007.1
20260904090259 74 149 0.0 0.0 0.00 0.04 0.00 99 1007.1
20260904085759 74 149 0.0 0.0 0.00 0.04 0.00 99 1007.1
20260904085305 74 149 0.0 0.0 0.00 0.04 0.00 99 1007.1
20260904084759 74 149 0.0 0.0 0.00 0.04 0.00 99 1007.1
20260904084300 75 149 0.0 0.0 0.00 0.04 0.00 99 1007.0
20260904083759 75 149 0.0 0.0 0.00 0.04 0.00 99 1007.0
20260904083259 75 149 0.0 0.0 0.00 0.04 0.00 99 1006.9
20260904082759 75 149 0.0 0.0 0.00 0.04 0.00 99 1007.0
20260904082300 75 149 0.0 0.0 0.00 0.04 0.00 99 1007.0
20260904081802 75 149 0.0 0.0 0.00 0.04 0.00 99 1007.0
20260904081259 75 149 0.0 0.0 0.00 0.04 0.00 99 1006.9
20260904080300 75 149 0.0 0.0 0.00 0.04 0.00 99 1006.9
20260904075800 75 149 0.0 0.0 0.00 0.04 0.00 99 1006.9
20260904074759 76 149 0.0 0.0 0.00 0.04 0.00 99 1006.9
20260904074259 76 149 0.0 0.0 0.00 0.04 0.00 99 1006.9
20260904073759 76 149 0.0 0.0 0.00 0.04 0.00 98 1006.9
20260904073259 76 149 0.0 0.0 0.00 0.04 0.00 98 1007.0
20260904072759 76 149 0.0 0.0 0.00 0.04 0.00 98 1007.0
20260904071804 76 149 0.0 0.0 0.00 0.04 0.00 98 1007.0
20260904071334 76 149 0.0 0.0 0.00 0.04 0.00 98 1006.9
20260904071259 76 149 0.0 0.0 0.00 0.04 0.00 98 1006.9
20260904070759 76 149 0.0 0.0 0.00 0.04 0.00 98 1006.9
20260904070300 76 149 0.0 0.0 0.00 0.04 0.00 97 1007.0
20260904065800 76 149 0.0 0.0 0.00 0.04 0.00 97 1007.0
20260904064800 76 149 0.0 0.0 0.00 0.04 0.00 97 1007.0
20260904064259 76 149 0.0 0.0 0.00 0.04 0.00 97 1007.1
20260904063759 76 149 0.0 0.0 0.00 0.04 0.00 96 1007.0
20260904063259 77 149 0.0 0.0 0.00 0.04 0.00 96 1007.1
20260904061259 77 149 0.0 0.0 0.00 0.04 0.00 95 1007.0
20260904060759 77 149 0.0 0.0 0.00 0.04 0.00 95 1007.0
20260904060303 77 149 0.0 0.0 0.00 0.04 0.00 95 1007.0
20260904055759 77 149 0.0 0.0 0.00 0.04 0.00 95 1007.1
20260904055300 77 149 0.0 0.0 0.00 0.04 0.00 94 1007.1
20260904054339 77 149 0.0 0.0 0.00 0.04 0.00 94 1007.0
20260904054259 77 149 0.0 0.0 0.00 0.04 0.00 94 1007.0
20260904053759 77 149 0.0 0.0 0.00 0.04 0.00 94 1007.0
20260904053259 77 149 0.0 0.0 0.00 0.04 0.00 93 1007.0
20260904052759 77 149 0.0 0.0 0.00 0.04 0.00 93 1007.0
20260904052301 78 149 0.0 0.0 0.00 0.04 0.00 93 1007.0
20260904051759 78 149 0.0 0.0 0.00 0.04 0.00 92 1006.9
20260904051300 78 149 0.0 0.0 0.00 0.04 0.00 92 1006.9
20260904050801 78 149 0.0 0.0 0.00 0.04 0.00 92 1006.9
20260904050305 78 149 0.0 0.0 0.00 0.04 0.00 92 1006.9
20260904045759 78 149 0.0 0.0 0.00 0.04 0.04 91 1006.9
20260904044759 78 149 0.0 0.0 0.00 0.04 0.04 90 1006.9
20260904044300 78 149 0.0 0.0 0.00 0.04 0.04 90 1006.9
20260904043759 79 149 0.0 0.0 0.00 0.04 0.04 89 1006.8
20260904043259 79 149 0.0 0.0 0.00 0.04 0.04 89 1006.8
20260904042759 79 149 0.0 0.0 0.00 0.04 0.04 88 1006.9
20260904042330 79 149 0.0 0.0 0.00 0.04 0.04 88 1006.8
20260904042259 79 149 0.0 0.0 0.00 0.04 0.04 88 1006.8
20260904041259 80 149 0.0 0.0 0.00 0.04 0.04 87 1006.7
20260904040800 80 149 0.0 0.0 0.00 0.04 0.04 87 1006.8
20260904040259 80 149 0.0 0.0 0.00 0.04 0.04 86 1006.8
20260904035759 80 150 0.0 0.0 0.00 0.04 0.04 86 1006.8
20260904034801 80 158 3.0 5.0 0.00 0.04 0.04 86 1006.8
20260904033302 80 185 0.0 4.0 0.00 0.04 0.04 86 1006.8
20260904032802 80 194 3.0 5.0 0.00 0.04 0.04 86 1006.8
20260904032306 80 168 0.0 0.0 0.00 0.04 0.04 86 1006.8
20260904031800 80 108 0.0 0.0 0.00 0.04 0.04 86 1006.9
20260904031300 80 108 0.0 0.0 0.00 0.04 0.04 86 1006.9
20260904030759 80 108 0.0 0.0 0.00 0.04 0.04 86 1006.9
20260904030259 80 108 0.0 0.0 0.00 0.04 0.04 85 1006.9
20260904025759 80 108 0.0 0.0 0.00 0.04 0.04 85 1006.9
20260904022801 80 108 0.0 0.0 0.00 0.04 0.04 84 1006.7
20260904015802 81 108 0.0 0.0 0.00 0.04 0.04 82 1006.6
20260904015300 81 108 0.0 0.0 0.00 0.04 0.04 81 1006.5
20260904013805 81 108 0.0 0.0 0.00 0.04 0.04 80 1006.4
20260904013301 81 108 0.0 0.0 0.00 0.04 0.04 79 1006.4
20260904012759 81 108 0.0 0.0 0.00 0.04 0.04 79 1006.5
20260904011800 82 108 0.0 0.0 0.00 0.04 0.04 78 1006.3
20260904011259 82 108 0.0 0.0 0.00 0.04 0.04 78 1006.3
20260904010807 82 108 0.0 0.0 0.00 0.04 0.04 77 1006.2
20260904010259 83 108 0.0 3.0 0.00 0.04 0.04 77 1006.1
20260904005759 83 119 0.0 5.0 0.00 0.04 0.04 77 1006.1
20260904005334 83 144 0.0 6.0 0.00 0.04 0.04 76 1006.1
20260904005306 83 144 0.0 6.0 0.00 0.04 0.04 76 1006.1
20260904003301 83 139 0.0 0.0 0.00 0.04 0.04 74 1006.0
20260904002301 84 139 0.0 5.0 0.00 0.04 0.04 73 1006.1
20260904001759 84 150 0.0 4.0 0.00 0.04 0.04 72 1006.0
20260904001300 84 153 0.0 8.0 0.00 0.04 0.04 72 1006.1
20260904000848 84 178 0.0 7.0 0.00 0.04 0.04 72 1006.1
20260904000801 84 178 0.0 7.0 0.00 0.04 0.04 72 1006.1
20260904000259 84 168 3.0 5.0 0.00 0.04 0.04 71 1006.1
20260903235800 84 97 5.0 8.0 0.00 0.04 0.04 71 1006.1
20260903234302 84 215 4.0 10.0 0.00 0.04 0.04 70 1006.1
20260903233759 84 161 6.0 13.0 0.00 0.04 0.04 70 1006.2
20260903233300 85 151 7.0 14.0 0.00 0.04 0.04 69 1006.2
20260903232759 85 189 0.0 10.0 0.00 0.04 0.04 69 1006.2
20260903231628 85 185 9.0 12.0 0.00 0.04 0.04 68 1005.9
20260903231300 85 185 9.0 12.0 0.00 0.04 0.04 68 1005.9
20260903225759 86 172 4.0 8.0 0.00 0.04 0.04 67 1005.6
20260903224301 86 187 7.0 15.0 0.00 0.04 0.04 67 1005.4
20260903223258 85 192 9.0 13.0 0.00 0.04 0.04 65 1005.3
20260903222301 86 167 5.0 13.0 0.00 0.04 0.04 66 1005.5
20260903221802 86 153 5.0 7.0 0.00 0.04 0.04 66 1005.5
20260903221258 86 161 0.0 14.0 0.00 0.04 0.04 66 1005.6
20260903220258 85 146 0.0 9.0 0.00 0.04 0.04 65 1005.6
20260903214258 86 189 5.0 9.0 0.00 0.04 0.04 65 1005.8
20260903213804 86 170 8.0 14.0 0.00 0.04 0.04 65 1005.7
20260903213259 86 189 2.0 9.0 0.00 0.04 0.04 66 1005.8
20260903212758 86 172 11.0 13.0 0.00 0.04 0.04 65 1005.8
20260903212259 86 174 12.0 14.0 0.00 0.04 0.04 66 1005.9
20260903211802 86 133 0.0 15.0 0.00 0.04 0.04 65 1006.0
20260903211258 86 184 3.0 9.0 0.00 0.04 0.04 65 1006.1
20260903210844 86 232 0.0 12.0 0.00 0.04 0.04 65 1006.2
20260903210808 86 232 0.0 12.0 0.00 0.04 0.04 65 1006.2
20260903210259 85 239 0.0 5.0 0.00 0.04 0.04 66 1006.1
20260903205801 86 188 8.0 11.0 0.00 0.04 0.04 64 1006.0
20260903204800 85 300 3.0 7.0 0.00 0.04 0.04 68 1006.3
20260903203258 85 153 4.0 12.0 0.00 0.04 0.04 66 1006.7
20260903202306 85 153 0.0 6.0 0.00 0.04 0.04 67 1006.6
20260903201804 85 180 4.0 13.0 0.00 0.04 0.04 65 1006.6
20260903201306 85 165 4.0 13.0 0.00 0.04 0.04 66 1006.5
20260903200806 85 150 8.0 9.0 0.00 0.04 0.04 65 1006.5
20260903200302 85 182 6.0 12.0 0.00 0.04 0.04 66 1006.6
20260903195802 86 209 9.0 15.0 0.00 0.04 0.04 65 1006.7
20260903194805 86 98 3.0 10.0 0.00 0.04 0.04 65 1006.5
20260903194258 85 170 7.0 10.0 0.00 0.04 0.04 67 1006.5
20260903193800 86 178 6.0 8.0 0.00 0.04 0.04 67 1006.9
20260903193258 86 189 5.0 11.0 0.00 0.04 0.04 65 1007.1
20260903192758 86 149 5.0 11.0 0.00 0.04 0.04 65 1007.0
20260903192301 86 126 0.0 14.0 0.00 0.04 0.04 65 1006.8
20260903191259 85 151 12.0 12.0 0.00 0.04 0.04 67 1006.8
20260903190758 85 209 5.0 14.0 0.00 0.04 0.04 66 1006.8
20260903190258 83 146 6.0 6.0 0.00 0.04 0.04 69 1006.9
20260903185758 83 168 3.0 8.0 0.00 0.04 0.04 75 1006.8
20260903184758 81 112 0.0 6.0 0.04 0.04 0.04 88 1007.1
20260903184258 80 71 2.0 5.0 0.04 0.04 0.04 89 1007.1
20260903183759 79 236 0.0 5.0 0.04 0.04 0.04 91 1007.2
20260903183259 79 333 4.0 5.0 0.04 0.04 0.04 92 1007.2
20260903182259 78 7 0.0 3.0 0.04 0.04 0.04 93 1007.4
20260903181801 78 0.0 3.0 0.04 0.34 6.04 93 1007.5
20260903181759 78 25 0.0 0.0 0.04 0.04 0.04 93 1007.5
20260903181259 78 30 3.0 4.0 0.04 0.04 0.04 92 1007.4
20260903180806 78 4 0.0 3.0 0.04 0.04 0.04 91 1007.5
20260903180259 78 78 0.0 0.0 0.04 0.04 0.04 88 1007.5
20260903175759 79 78 0.0 0.0 0.04 0.04 0.04 86 1007.4
20260903175200 79 78 0.0 0.0 0.02 0.02 0.02 83 1007.2
20260903175003 79 78 0.0 3.0 0.00 0.00 0.00 82 1007.3
20260903174458 80 71 0.0 0.0 0.00 0.00 0.00 81 1007.7
20260903173458 80 36 3.0 6.0 0.00 0.00 0.00 78 1007.7
20260903172959 80 156 0.0 4.0 0.00 0.00 0.00 78 1007.4
20260903172504 80 108 0.0 0.0 0.00 0.00 0.00 78 1007.4
20260903171958 80 108 0.0 8.0 0.00 0.00 0.00 78 1007.6